• în România
  • Lista ţărilor
  • Pe 7 zile
  • Temperatura apei
  • Hartă satelitară
  • Meteo pe hartă
  • Widget-uri
  • user-avatar
    Intrare

    Meteo pe oră la Shusha

    Astăzi, 19 Ianuarie, Vineri

    Timp Temperatura Precipitaţii Vânt Presiune Umiditate
    00:00 -2°C° 0 mm 2 m/s 651 mmHg 64%
    01:00 -2°C° 0 mm 2 m/s 651 mmHg 64%
    02:00 -2°C° 0 mm 2 m/s 651 mmHg 64%
    03:00 -2°C° 0 mm 2 m/s 650 mmHg 66%
    04:00 -2°C° 0 mm 2 m/s 650 mmHg 65%
    05:00 -2°C° 0 mm 2 m/s 651 mmHg 64%
    06:00 -2°C° 0 mm 2 m/s 651 mmHg 63%
    07:00 -1°C° 0 mm 2 m/s 651 mmHg 62%
    08:00 +2°C° 0 mm 2 m/s 652 mmHg 60%
    09:00 +3°C° 0 mm 2 m/s 652 mmHg 59%
    10:00 +5°C° 0 mm 2 m/s 652 mmHg 55%
    11:00 +7°C° 0 mm 1 m/s 652 mmHg 52%
    12:00 +8°C° 0 mm 1 m/s 653 mmHg 48%
    13:00 +8°C° 0 mm 1 m/s 653 mmHg 49%
    14:00 +8°C° 0 mm 1 m/s 653 mmHg 51%
    15:00 +8°C° 0 mm 1 m/s 653 mmHg 52%
    16:00 +7°C° 0 mm 1 m/s 653 mmHg 56%
    17:00 +5°C° 0 mm 1 m/s 653 mmHg 60%
    18:00 +4°C° 0 mm 1 m/s 653 mmHg 64%
    19:00 +4°C° 0 mm 1 m/s 653 mmHg 65%
    20:00 +3°C° 0 mm 1 m/s 653 mmHg 66%
    21:00 +3°C° 0 mm 1 m/s 653 mmHg 66%
    22:00 +3°C° 0 mm 1 m/s 654 mmHg 67%
    23:00 +3°C° 0 mm 1 m/s 654 mmHg 67%

    Mâine, 20 Ianuarie, Sâmbătă

    Timp Temperatura Precipitaţii Vânt Presiune Umiditate
    00:00 +3°C° 0 mm 1 m/s 654 mmHg 67%
    01:00 +3°C° 0 mm 1 m/s 655 mmHg 69%
    02:00 +3°C° 0 mm 1 m/s 655 mmHg 70%
    03:00 +3°C° 0 mm 1 m/s 655 mmHg 72%
    04:00 +3°C° 0,2 mm 1 m/s 655 mmHg 73%
    05:00 +3°C° 0,2 mm 1 m/s 656 mmHg 75%
    06:00 +1°C° 0,2 mm 2 m/s 656 mmHg 76%
    07:00 +3°C° 0,2 mm 1 m/s 657 mmHg 75%
    08:00 +3°C° 0,2 mm 1 m/s 657 mmHg 74%
    09:00 +4°C° 0,2 mm 1 m/s 658 mmHg 73%
    10:00 +5°C° 0 mm 1 m/s 658 mmHg 70%
    11:00 +4°C° 0 mm 2 m/s 659 mmHg 66%
    12:00 +5°C° 0 mm 2 m/s 659 mmHg 63%
    13:00 +6°C° 0 mm 1 m/s 659 mmHg 63%
    14:00 +6°C° 0 mm 1 m/s 660 mmHg 63%
    15:00 +7°C° 0 mm 1 m/s 660 mmHg 63%
    16:00 +5°C° 0 mm 1 m/s 660 mmHg 67%
    17:00 +4°C° 0 mm 1 m/s 660 mmHg 71%
    18:00 +3°C° 0 mm 1 m/s 661 mmHg 75%
    19:00 +3°C° 0 mm 1 m/s 661 mmHg 74%
    20:00 +3°C° 0 mm 1 m/s 661 mmHg 74%
    21:00 +2°C° 0 mm 1 m/s 661 mmHg 73%
    22:00 +2°C° 0 mm 1 m/s 661 mmHg 72%
    23:00 +2°C° 0 mm 1 m/s 661 mmHg 71%

    Poimâine, 21 Ianuarie, Duminică

    Timp Temperatura Precipitaţii Vânt Presiune Umiditate
    00:00 +1°C° 0 mm 2 m/s 661 mmHg 70%
    01:00 -1°C° 0 mm 2 m/s 661 mmHg 68%
    02:00 -1°C° 0 mm 2 m/s 661 mmHg 67%
    03:00 -1°C° 0 mm 2 m/s 661 mmHg 66%
    04:00 -1°C° 0 mm 2 m/s 661 mmHg 64%
    05:00 -1°C° 0 mm 2 m/s 660 mmHg 62%
    06:00 -1°C° 0 mm 2 m/s 660 mmHg 60%
    07:00 +2°C° 0 mm 1 m/s 661 mmHg 58%
    08:00 +3°C° 0 mm 1 m/s 661 mmHg 56%
    09:00 +4°C° 0 mm 1 m/s 661 mmHg 53%
    10:00 +5°C° 0 mm 1 m/s 661 mmHg 51%
    11:00 +6°C° 0 mm 1 m/s 661 mmHg 48%
    12:00 +7°C° 0 mm 2 m/s 660 mmHg 46%
    13:00 +7°C° 0 mm 2 m/s 660 mmHg 46%
    14:00 +7°C° 0 mm 2 m/s 660 mmHg 45%
    15:00 +7°C° 0 mm 2 m/s 660 mmHg 45%
    16:00 +6°C° 0 mm 2 m/s 659 mmHg 48%
    17:00 +5°C° 0 mm 2 m/s 659 mmHg 51%
    18:00 +3°C° 0 mm 2 m/s 659 mmHg 54%
    19:00 +3°C° 0 mm 2 m/s 659 mmHg 52%
    20:00 +3°C° 0 mm 2 m/s 659 mmHg 49%
    21:00 +3°C° 0 mm 2 m/s 659 mmHg 47%
    22:00 +3°C° 0 mm 2 m/s 659 mmHg 45%
    23:00 +3°C° 0 mm 2 m/s 659 mmHg 43%

    22 Ianuarie, Luni

    Timp Temperatura Precipitaţii Vânt Presiune Umiditate
    00:00 +3°C° 0 mm 2 m/s 659 mmHg 42%
    01:00 +3°C° 0 mm 2 m/s 658 mmHg 41%
    02:00 +2°C° 0 mm 2 m/s 658 mmHg 40%
    03:00 +2°C° 0 mm 2 m/s 658 mmHg 40%
    04:00 +2°C° 0 mm 2 m/s 657 mmHg 40%
    05:00 +2°C° 0 mm 2 m/s 657 mmHg 40%
    06:00 +2°C° 0 mm 2 m/s 657 mmHg 40%
    07:00 +4°C° 0 mm 1 m/s 657 mmHg 40%
    08:00 +5°C° 0 mm 1 m/s 657 mmHg 39%
    09:00 +6°C° 0 mm 1 m/s 657 mmHg 39%
    10:00 +7°C° 0 mm 1 m/s 656 mmHg 38%
    11:00 +8°C° 0 mm 1 m/s 656 mmHg 37%
    12:00 +9°C° 0 mm 1 m/s 656 mmHg 36%
    13:00 +9°C° 0 mm 1 m/s 655 mmHg 38%
    14:00 +8°C° 0 mm 1 m/s 655 mmHg 40%
    15:00 +8°C° 0 mm 1 m/s 654 mmHg 41%
    16:00 +7°C° 0 mm 1 m/s 654 mmHg 44%
    17:00 +6°C° 0 mm 1 m/s 653 mmHg 47%
    18:00 +4°C° 0 mm 1 m/s 653 mmHg 49%
    19:00 +4°C° 0 mm 1 m/s 653 mmHg 47%
    20:00 +3°C° 0 mm 2 m/s 653 mmHg 45%
    21:00 +2°C° 0 mm 2 m/s 653 mmHg 43%
    22:00 +2°C° 0 mm 2 m/s 652 mmHg 41%
    23:00 +2°C° 0 mm 2 m/s 652 mmHg 39%

    23 Ianuarie, Marţi

    Timp Temperatura Precipitaţii Vânt Presiune Umiditate
    00:00 +2°C° 0 mm 2 m/s 652 mmHg 37%
    01:00 +2°C° 0 mm 2 m/s 652 mmHg 37%
    02:00 +2°C° 0 mm 2 m/s 652 mmHg 37%
    03:00 +2°C° 0 mm 2 m/s 652 mmHg 36%
    04:00 +1°C° 0 mm 2 m/s 652 mmHg 37%
    05:00 0°C° 0 mm 3 m/s 652 mmHg 38%
    06:00 0°C° 0 mm 3 m/s 652 mmHg 38%
    07:00 +1°C° 0 mm 3 m/s 652 mmHg 38%
    08:00 +3°C° 0 mm 2 m/s 653 mmHg 37%
    09:00 +4°C° 0 mm 2 m/s 653 mmHg 37%
    10:00 +5°C° 0 mm 2 m/s 653 mmHg 35%
    11:00 +7°C° 0 mm 2 m/s 653 mmHg 32%
    12:00 +8°C° 0 mm 2 m/s 654 mmHg 29%
    13:00 +8°C° 0 mm 2 m/s 653 mmHg 30%
    14:00 +8°C° 0 mm 2 m/s 653 mmHg 32%
    15:00 +8°C° 0 mm 2 m/s 653 mmHg 33%
    16:00 +7°C° 0 mm 2 m/s 653 mmHg 36%
    17:00 +6°C° 0 mm 1 m/s 653 mmHg 40%
    18:00 +5°C° 0 mm 1 m/s 653 mmHg 44%
    19:00 +5°C° 0 mm 1 m/s 653 mmHg 45%
    20:00 +3°C° 0 mm 0 m/s 653 mmHg 46%
    21:00 +3°C° 0 mm 0 m/s 653 mmHg 46%
    22:00 +3°C° 0 mm 0 m/s 653 mmHg 48%
    23:00 +3°C° 0 mm 0 m/s 653 mmHg 49%

    24 Ianuarie, Miercuri

    Timp Temperatura Precipitaţii Vânt Presiune Umiditate
    00:00 +2°C° 0 mm 0 m/s 653 mmHg 51%
    01:00 +2°C° 0 mm 0 m/s 654 mmHg 54%
    02:00 +2°C° 0 mm 0 m/s 654 mmHg 56%
    03:00 +3°C° 0 mm 1 m/s 654 mmHg 59%
    04:00 +2°C° 0 mm 1 m/s 654 mmHg 61%
    05:00 +2°C° 0 mm 1 m/s 654 mmHg 64%
    06:00 +1°C° 0 mm 1 m/s 654 mmHg 67%
    07:00 +1°C° 0,1 mm 1 m/s 655 mmHg 67%
    08:00 +2°C° 0,1 mm 1 m/s 655 mmHg 68%
    09:00 +2°C° 0,1 mm 1 m/s 656 mmHg 68%
    10:00 +2°C° 0,2 mm 1 m/s 656 mmHg 69%
    11:00 +2°C° 0,2 mm 1 m/s 656 mmHg 69%
    12:00 +2°C° 0,2 mm 2 m/s 656 mmHg 70%
    13:00 +2°C° 0,2 mm 2 m/s 657 mmHg 71%
    14:00 +2°C° 0,2 mm 2 m/s 657 mmHg 71%
    15:00 +2°C° 0,2 mm 2 m/s 657 mmHg 72%
    16:00 +1°C° 0,1 mm 2 m/s 658 mmHg 76%
    17:00 +2°C° 0,1 mm 1 m/s 658 mmHg 80%
    18:00 +1°C° 0,1 mm 1 m/s 658 mmHg 83%
    19:00 +1°C° 0,1 mm 1 m/s 659 mmHg 85%
    20:00 0°C° 0,1 mm 1 m/s 659 mmHg 86%
    21:00 0°C° 0,1 mm 1 m/s 659 mmHg 88%
    22:00 0°C° 0 mm 1 m/s 659 mmHg 88%
    23:00 0°C° 0 mm 1 m/s 660 mmHg 88%
    Arată mai mult